[[{"header":{"parameterUnit":"m.s-1","parameterCategory":1,"la1":30.2991,"la2":30.254,"lo1":-89.0895,"lo2":-89.0444,"dy":0.0017,"dx":0.0017,"nx":28,"ny":28,"refTime":"2023-08-17T09:00:00:Z","depth":0,"parameterNumber":2,"parameterNumberName":"U-component_of_WINDS"},"data":[0,0,0,0,0,0,0,0,0,0,0,0,0,0,0,0,0,0,0,0,0,0,0,0,0,0,0,0,0,0,0,0,0,0,0,0,0,0,0,0,0,0,0,0,0,0,0,0,0,0,0,0,0,0,0,0,0,0,1.3591,1.3591,0,1.364,1.364,1.3641,1.3631,1.363,1.3629,1.3628,1.3677,1.3679,1.3681,0,0,0,0,0,0,0,0,0,0,0,0,0,1.3486,1.3488,1.3591,1.3591,1.3592,1.3639,1.364,1.3641,1.3631,1.363,1.3629,1.3628,1.3676,1.3678,1.3681,0,0,0,0,0,0,0,0,0,0,0,0,0,1.3533,1.3489,1.3591,1.3593,1.3594,1.3639,1.364,1.3641,1.3631,1.363,1.3628,1.3627,1.3675,1.3678,1.3681,1.3728,0,0,1.3691,1.3692,0,0,0,0,0,0,0,0,1.353,1.3537,1.3592,1.3593,1.3594,1.3628,1.3621,1.367,1.3631,1.3617,1.3628,1.3626,1.3661,1.3666,1.3678,1.373,1.3732,1.3691,1.3693,1.3695,1.3696,0,0,0,0,0,0,0,1.3527,1.3535,1.361,1.3593,1.3594,1.359,1.3596,1.363,1.3646,1.3618,1.3617,1.3623,1.3662,1.3675,1.3679,1.3733,1.3691,1.3694,1.3696,1.3697,1.3823,1.3824,0,0,0,0,0,0,1.3523,1.3532,1.3608,1.3611,1.3558,1.3593,1.3599,1.3618,1.3645,1.3648,1.3624,1.3623,1.367,1.3675,1.368,1.3734,1.3695,1.3698,1.3699,1.3821,1.3823,1.3824,0,0,0,0,0,0,1.3521,1.353,1.3607,1.3572,1.3581,1.3597,1.3618,1.362,1.3633,1.365,1.3653,1.3635,1.3669,1.3676,1.3715,1.3736,1.3699,1.3702,1.3819,1.3822,1.3824,1.3844,0,0,0,0,0,0,1.3518,1.353,1.3548,1.3572,1.3583,1.3642,1.3619,1.3622,1.3638,1.3637,1.3661,1.3664,1.3668,1.3711,1.3719,1.374,1.3704,1.3818,1.382,1.3823,1.3841,1.3846,1.3851,0,0,0,0,0,1.3515,1.3552,1.3549,1.3559,1.3607,1.3643,1.3649,1.3654,1.364,1.3658,1.3669,1.3663,1.3733,1.3715,1.3724,1.3746,1.3816,1.382,1.3823,1.3839,1.3845,1.3851,0,0,0,0,0,0,1.353,1.3556,1.3552,1.3599,1.3619,1.3641,1.3664,1.3661,1.3685,1.3682,1.3687,1.3692,1.3732,1.3743,1.3723,1.3791,1.3772,1.3777,1.3782,1.3788,1.3792,1.3788,1.3707,0,0,0,0,0,1.3539,1.3568,1.3588,1.3627,1.3637,1.3649,1.3665,1.3667,1.3687,1.3696,1.371,1.3729,1.3755,1.3772,1.3798,1.3843,1.3847,1.3863,1.3867,1.3871,1.3875,1.3897,1.3904,1.3835,1.3835,1.3835,0,0,1.3558,1.3575,1.3593,1.363,1.3646,1.3674,1.3656,1.3687,1.3707,1.37,1.3738,1.3749,1.3771,1.3813,1.3832,1.3823,1.3895,1.3875,1.3878,1.388,1.3901,1.3908,1.3914,1.3837,1.3837,1.3836,0,0,1.3606,1.3623,1.3656,1.3672,1.3695,1.3703,1.3711,1.3733,1.374,1.3778,1.3773,1.3797,1.3842,1.3857,1.3871,1.3923,1.3917,1.3931,1.3954,1.3976,1.3982,1.3986,1.4003,1.4009,1.3935,1.3935,1.3935,0,1.3626,1.3668,1.3673,1.3704,1.372,1.3715,1.3748,1.3763,1.3793,1.3803,1.3793,1.3849,1.3864,1.3908,1.392,1.3932,1.394,1.3927,1.3981,1.3985,1.399,1.4006,1.4012,1.3936,1.3936,1.3936,1.3936,0,1.369,1.372,1.3744,1.3773,1.3791,1.3823,1.3832,1.385,1.385,1.3858,1.3895,1.3912,1.394,1.3951,1.3952,1.3995,1.3988,1.398,1.3961,1.3998,1.4012,1.4019,1.3938,1.3938,1.3937,1.3937,0,0,1.375,1.378,1.3789,1.3801,1.3826,1.3848,1.3879,1.3906,1.392,1.3941,1.3965,1.4003,1.3994,1.401,1.4012,1.4031,1.4068,1.402,1.402,1.4027,1.4114,1.4119,1.4127,1.4065,1.4066,1.4067,1.4112,0,1.3798,1.3852,1.3857,1.3905,1.3931,1.3926,1.3952,1.397,1.3978,1.4,1.4009,1.4034,1.4022,1.4031,1.405,1.406,1.4086,1.4057,1.4086,1.4087,1.4079,1.4135,1.4141,1.4182,1.4118,1.4119,1.4119,0,1.3862,1.3884,1.3935,1.3954,1.3965,1.3989,1.4012,1.4035,1.4053,1.4058,1.4074,1.4073,1.4103,1.4084,1.4124,1.4104,1.4116,1.4123,1.4124,1.4126,1.4105,1.4136,1.4195,1.4201,1.4129,1.4128,1.4127,0,1.3897,1.394,1.3975,1.3986,1.401,1.4026,1.4037,1.4055,1.407,1.4091,1.41,1.4124,1.4137,1.4155,1.416,1.4146,1.4199,1.4181,1.4202,1.4202,1.4212,1.4211,1.4273,1.4223,1.4223,1.4223,1.4223,0,1.395,1.398,1.3991,1.4013,1.4046,1.4051,1.4083,1.4093,1.4108,1.4131,1.4128,1.4149,1.4155,1.4177,1.4181,1.4212,1.4218,1.4221,1.4222,1.4221,1.422,1.4228,1.4224,1.4224,1.4224,1.4224,1.4223,0,1.3995,1.4003,1.4041,1.406,1.4066,1.4089,1.4105,1.4125,1.4133,1.4161,1.4167,1.4179,1.4203,1.421,1.4241,1.4243,1.4279,1.4278,1.4273,1.4272,1.4292,1.4289,1.4359,1.4368,1.4314,1.4315,1.4315,0,1.4027,1.405,1.4072,1.4086,1.4098,1.4122,1.4137,1.4142,1.4158,1.418,1.4197,1.4221,1.4241,1.4281,1.4291,1.4313,1.4311,1.4334,1.4315,1.4312,1.4309,1.4307,1.4309,1.4338,1.4338,1.4339,1.4339,0,1.4082,1.4085,1.4107,1.413,1.4148,1.4167,1.4185,1.4197,1.4204,1.4222,1.4247,1.4262,1.4292,1.4316,1.4338,1.4348,1.4344,1.4345,1.4351,1.4349,1.4344,1.4345,1.4281,1.4343,1.4343,1.4343,1.4342,1.4342,1.412,1.414,1.4158,1.4182,1.4196,1.4212,1.4231,1.424,1.4262,1.4286,1.4288,1.4315,1.4331,1.4361,1.4372,1.4392,1.4385,1.4394,1.4396,1.4398,1.4398,1.4342,1.4397,1.4396,1.4396,1.4396,1.4396,0,1.4174,1.4185,1.4207,1.4231,1.425,1.4245,1.4264,1.428,1.4303,1.4319,1.4339,1.4367,1.4389,1.4401,1.4423,1.4437,1.4435,1.4442,1.444,1.4442,1.4404,1.4396,1.4443,1.4443,1.4443,1.4443,1.4443,1.4443,1.4204,1.4236,1.424,1.4279,1.4289,1.4316,1.4326,1.4341,1.4353,1.4385,1.4403,1.4411,1.4424,1.4447,1.4467,1.447,1.4477,1.4485,1.4486,1.445,1.4445,1.4441,1.4433,1.4487,1.4487,1.4523,1.4523,1.4523]},{"header":{"parameterUnit":"m.s-1","parameterCategory":1,"la1":30.2991,"la2":30.254,"lo1":-89.0895,"lo2":-89.0444,"dy":0.0017,"dx":0.0017,"nx":28,"ny":28,"refTime":"2023-08-17T09:00:00:Z","depth":0,"parameterNumber":3,"parameterNumberName":"V-component_of_WINDS"},"data":[0,0,0,0,0,0,0,0,0,0,0,0,0,0,0,0,0,0,0,0,0,0,0,0,0,0,0,0,0,0,0,0,0,0,0,0,0,0,0,0,0,0,0,0,0,0,0,0,0,0,0,0,0,0,0,0,0,0,5.3831,5.3831,0,5.38,5.3799,5.3799,5.3695,5.3692,5.369,5.3688,5.3657,5.3659,5.366,0,0,0,0,0,0,0,0,0,0,0,0,0,5.3801,5.3802,5.3831,5.3831,5.383,5.38,5.3799,5.3799,5.3695,5.3692,5.3689,5.3687,5.3657,5.3659,5.366,0,0,0,0,0,0,0,0,0,0,0,0,0,5.3797,5.3802,5.3831,5.3774,5.3769,5.38,5.3799,5.3799,5.3696,5.3692,5.3688,5.3685,5.3656,5.3658,5.3661,5.3744,0,0,5.3667,5.3668,0,0,0,0,0,0,0,0,5.3797,5.3798,5.3783,5.3778,5.3772,5.3747,5.3778,5.3781,5.3696,5.3724,5.3688,5.3683,5.369,5.3689,5.3691,5.3743,5.3741,5.3667,5.3668,5.3669,5.367,0,0,0,0,0,0,0,5.3797,5.3798,5.3819,5.3783,5.3777,5.3751,5.3746,5.3778,5.3727,5.3721,5.3713,5.3711,5.3687,5.369,5.369,5.3741,5.3667,5.3669,5.367,5.3671,5.3857,5.386,0,0,0,0,0,0,5.3806,5.3799,5.382,5.3818,5.3776,5.3754,5.3749,5.3759,5.3726,5.3718,5.3714,5.3706,5.3688,5.3688,5.3688,5.3782,5.3669,5.3671,5.3672,5.3853,5.3858,5.3862,0,0,0,0,0,0,5.3805,5.3808,5.3821,5.3806,5.3806,5.3759,5.377,5.376,5.3763,5.3721,5.3712,5.3726,5.3685,5.3686,5.373,5.3779,5.3672,5.3674,5.3849,5.3855,5.386,5.3971,0,0,0,0,0,0,5.3805,5.3809,5.384,5.3808,5.3807,5.3863,5.3774,5.3762,5.3767,5.3756,5.373,5.3722,5.3682,5.3728,5.3732,5.378,5.3676,5.3844,5.3851,5.3858,5.3963,5.398,5.3994,0,0,0,0,0,5.3804,5.3873,5.3842,5.3845,5.3845,5.3866,5.3866,5.3818,5.3771,5.3802,5.3775,5.3723,5.3774,5.3733,5.3738,5.3787,5.3841,5.3849,5.3857,5.3955,5.3976,5.3994,0,0,0,0,0,0,5.3913,5.3868,5.3833,5.3894,5.3885,5.3849,5.3886,5.3842,5.3846,5.3836,5.3777,5.3772,5.3825,5.3811,5.3766,5.3865,5.3799,5.3808,5.3872,5.3891,5.3907,5.3908,5.3677,0,0,0,0,0,5.3944,5.3965,5.3925,5.3982,5.3979,5.3934,5.3941,5.3905,5.3893,5.3889,5.3865,5.3857,5.387,5.388,5.3891,5.3961,5.3953,5.3997,5.4013,5.4026,5.4034,5.4068,5.4087,5.3889,5.3889,5.3889,0,0,5.4009,5.3986,5.4003,5.4003,5.3992,5.4014,5.3931,5.3959,5.3975,5.3893,5.3933,5.3916,5.3902,5.396,5.3984,5.3949,5.4087,5.4036,5.4047,5.4048,5.4079,5.4097,5.4114,5.3894,5.3893,5.3893,0,0,5.4136,5.4123,5.4168,5.4158,5.4141,5.4111,5.4122,5.4093,5.4077,5.4117,5.4055,5.4074,5.41,5.4091,5.4091,5.4216,5.4168,5.4221,5.4302,5.4336,5.4352,5.4365,5.4408,5.4424,5.423,5.423,5.423,0,5.4218,5.4249,5.4197,5.4228,5.4229,5.4156,5.4201,5.4195,5.4183,5.4186,5.4148,5.4176,5.4162,5.4215,5.4246,5.4249,5.4259,5.4222,5.4354,5.4367,5.4379,5.4418,5.4435,5.4236,5.4236,5.4235,5.4234,0,5.435,5.4372,5.4411,5.44,5.4406,5.4444,5.4398,5.441,5.4374,5.4347,5.4388,5.4368,5.4372,5.4383,5.4348,5.4431,5.441,5.4364,5.4296,5.4405,5.4441,5.4456,5.4246,5.4243,5.4241,5.424,0,0,5.4544,5.4503,5.4518,5.4511,5.4488,5.4504,5.454,5.4543,5.4554,5.4549,5.4575,5.4598,5.4555,5.4554,5.4518,5.4549,5.4646,5.4498,5.4497,5.4525,5.4734,5.4767,5.4786,5.4615,5.4618,5.462,5.4735,0,5.4664,5.4719,5.4673,5.4737,5.4757,5.4688,5.4718,5.4707,5.4683,5.4696,5.467,5.4686,5.4629,5.4628,5.4655,5.4629,5.4687,5.462,5.4639,5.464,5.4642,5.4805,5.484,5.4949,5.4749,5.4751,5.4753,0,5.481,5.4809,5.4876,5.4846,5.4852,5.488,5.4879,5.4893,5.4879,5.4859,5.4859,5.4814,5.4846,5.4781,5.4824,5.4779,5.4784,5.4773,5.4776,5.4774,5.4701,5.4805,5.4983,5.4998,5.4775,5.4773,5.4772,0,5.4942,5.4958,5.4999,5.4996,5.4964,5.4985,5.4972,5.4955,5.4959,5.4959,5.4961,5.4965,5.4967,5.4971,5.4928,5.4885,5.4976,5.4908,5.4959,5.4961,5.498,5.4979,5.5158,5.4988,5.4988,5.4987,5.4987,0,5.5078,5.5121,5.5058,5.5083,5.5128,5.5075,5.5122,5.5102,5.5087,5.5107,5.505,5.507,5.5013,5.5028,5.4995,5.5034,5.5037,5.5021,5.5011,5.5025,5.5026,5.5025,5.5016,5.4991,5.4991,5.499,5.4989,0,5.5232,5.5192,5.5231,5.5197,5.519,5.5225,5.5195,5.5217,5.519,5.5216,5.5219,5.5176,5.519,5.5149,5.5157,5.5135,5.5191,5.517,5.5195,5.5188,5.5241,5.5236,5.5424,5.5445,5.5264,5.5266,5.5268,0,5.5321,5.5351,5.532,5.5329,5.5319,5.5334,5.5338,5.5288,5.5294,5.528,5.5304,5.5313,5.5317,5.5342,5.5312,5.5317,5.5295,5.5361,5.5295,5.5307,5.5293,5.5291,5.5293,5.5374,5.5376,5.5378,5.5379,0,5.5481,5.5459,5.5467,5.5467,5.5473,5.5472,5.5466,5.5477,5.5423,5.5433,5.5446,5.5449,5.5456,5.5465,5.5464,5.5452,5.5406,5.54,5.5412,5.5425,5.5437,5.5429,5.5229,5.5396,5.5394,5.5393,5.5392,5.5391,5.5603,5.5626,5.5607,5.5617,5.5608,5.5604,5.5622,5.5596,5.5606,5.5607,5.5577,5.5596,5.558,5.5574,5.5566,5.558,5.555,5.5568,5.5572,5.5576,5.5584,5.5437,5.558,5.558,5.5579,5.5579,5.5578,0,5.5758,5.5742,5.5752,5.5745,5.5753,5.571,5.5701,5.5711,5.5727,5.5717,5.5722,5.5736,5.5745,5.5715,5.572,5.5737,5.5716,5.5739,5.5736,5.5734,5.5612,5.56,5.5756,5.5756,5.5756,5.5756,5.5756,5.5756,5.5839,5.5876,5.5852,5.5883,5.5867,5.5884,5.5883,5.5879,5.5869,5.5888,5.5894,5.5875,5.5856,5.5859,5.5865,5.5856,5.5859,5.5889,5.5873,5.576,5.5742,5.5726,5.5714,5.5891,5.5891,5.5993,5.5994,5.5995]}]]